TimeMST,TemperatureF,Dew PointF,Humidity,Sea Level PressureIn,VisibilityMPH,Wind Direction,Wind SpeedMPH,Gust SpeedMPH,PrecipitationIn,Events,Conditions,WindDirDegrees,DateUTC
12:51 AM,93.0,52.0,25,29.78,10.0,North,4.6,-,N/A,,Mostly Cloudy,350,2013-08-05 07:51:00
1:51 AM,91.0,51.1,25,29.78,10.0,Calm,Calm,-,N/A,,Mostly Cloudy,0,2013-08-05 08:51:00
2:51 AM,93.0,43.0,18,29.78,10.0,North,5.8,-,N/A,,Mostly Cloudy,360,2013-08-05 09:51:00
3:51 AM,91.9,37.0,15,29.79,10.0,North,3.5,-,N/A,,Mostly Cloudy,350,2013-08-05 10:51:00
4:51 AM,88.0,50.0,27,29.80,10.0,East,3.5,-,N/A,,Mostly Cloudy,80,2013-08-05 11:51:00
5:51 AM,86.0,53.1,32,29.82,10.0,SE,5.8,-,N/A,,Overcast,140,2013-08-05 12:51:00
6:51 AM,86.0,55.9,36,29.85,10.0,SE,8.1,-,N/A,,Mostly Cloudy,130,2013-08-05 13:51:00
7:51 AM,87.1,52.0,30,29.88,10.0,SSE,10.4,-,N/A,,Mostly Cloudy,150,2013-08-05 14:51:00
8:51 AM,90.0,54.0,29,29.90,10.0,ESE,9.2,-,N/A,,Mostly Cloudy,110,2013-08-05 15:51:00
9:51 AM,90.0,63.0,40,29.91,10.0,ESE,15.0,-,N/A,,Mostly Cloudy,120,2013-08-05 16:51:00
10:51 AM,90.0,63.0,40,29.91,10.0,SE,11.5,-,N/A,,Mostly Cloudy,130,2013-08-05 17:51:00
11:51 AM,93.9,61.0,33,29.88,10.0,SE,9.2,-,N/A,,Mostly Cloudy,130,2013-08-05 18:51:00
12:51 PM,93.9,59.0,31,29.86,10.0,East,3.5,-,N/A,,Mostly Cloudy,100,2013-08-05 19:51:00
1:51 PM,95.0,57.9,29,29.84,10.0,East,4.6,-,N/A,,Mostly Cloudy,100,2013-08-05 20:51:00
2:51 PM,97.0,54.0,23,29.82,10.0,South,5.8,-,N/A,,Mostly Cloudy,190,2013-08-05 21:51:00
3:51 PM,100.0,42.1,14,29.78,10.0,WSW,6.9,-,N/A,,Mostly Cloudy,250,2013-08-05 22:51:00
4:51 PM,100.0,44.1,15,29.77,10.0,West,5.8,-,N/A,,Mostly Cloudy,260,2013-08-05 23:51:00
5:51 PM,100.0,48.9,18,29.76,10.0,West,6.9,-,N/A,,Mostly Cloudy,260,2013-08-06 00:51:00
6:51 PM,97.0,53.1,23,29.76,10.0,WSW,10.4,-,N/A,,Mostly Cloudy,250,2013-08-06 01:51:00
7:51 PM,96.1,57.9,28,29.77,10.0,WSW,11.5,19.6,N/A,,Mostly Cloudy,250,2013-08-06 02:51:00
8:51 PM,93.0,60.1,33,29.79,10.0,WSW,13.8,-,N/A,,Mostly Cloudy,250,2013-08-06 03:51:00
9:51 PM,93.0,61.0,34,29.81,10.0,WSW,11.5,-,N/A,,Mostly Cloudy,250,2013-08-06 04:51:00
10:51 PM,91.9,60.1,34,29.81,10.0,West,8.1,-,N/A,,Mostly Cloudy,260,2013-08-06 05:51:00
11:51 PM,91.0,59.0,34,29.82,10.0,West,8.1,-,0.00,Rain,Light Rain,260,2013-08-06 06:51:00